TimeHST,TemperatureF,Dew PointF,Humidity,Sea Level PressureIn,VisibilityMPH,Wind Direction,Wind SpeedMPH,Gust SpeedMPH,PrecipitationIn,Events,Conditions,WindDirDegrees,DateUTC
12:53 AM,72.0,62.1,71,30.11,10.0,NE,18.4,-,N/A,,Partly Cloudy,50,2012-05-10 10:53:00
1:53 AM,72.0,62.1,71,30.09,10.0,NE,19.6,-,N/A,,Partly Cloudy,50,2012-05-10 11:53:00
2:53 AM,72.0,62.1,71,30.07,10.0,NE,17.3,-,N/A,,Scattered Clouds,40,2012-05-10 12:53:00
3:53 AM,71.1,63.0,75,30.06,8.0,ENE,15.0,-,0.00,Rain,Light Rain,60,2012-05-10 13:53:00
4:53 AM,71.1,63.0,75,30.06,10.0,NE,16.1,-,0.00,,Scattered Clouds,50,2012-05-10 14:53:00
5:53 AM,72.0,63.0,73,30.07,10.0,NE,15.0,-,N/A,,Scattered Clouds,50,2012-05-10 15:53:00
6:53 AM,72.0,62.1,71,30.09,10.0,NE,15.0,-,N/A,,Partly Cloudy,40,2012-05-10 16:53:00
7:53 AM,73.0,62.1,68,30.10,10.0,NE,17.3,-,N/A,,Overcast,50,2012-05-10 17:53:00
8:53 AM,73.9,63.0,68,30.12,10.0,NE,13.8,-,N/A,,Overcast,40,2012-05-10 18:53:00
9:53 AM,78.1,64.0,62,30.12,10.0,NE,13.8,-,N/A,,Scattered Clouds,50,2012-05-10 19:53:00
10:53 AM,79.0,64.0,60,30.12,10.0,NE,13.8,-,0.00,,Partly Cloudy,50,2012-05-10 20:53:00
11:53 AM,77.0,63.0,62,30.10,10.0,NE,13.8,-,N/A,,Mostly Cloudy,40,2012-05-10 21:53:00
12:53 PM,79.0,64.0,60,30.09,10.0,NE,13.8,-,N/A,,Scattered Clouds,50,2012-05-10 22:53:00
1:53 PM,79.0,62.1,56,30.07,10.0,NE,11.5,-,N/A,,Clear,40,2012-05-10 23:53:00
2:53 PM,78.1,63.0,60,30.06,10.0,NE,13.8,-,N/A,,Scattered Clouds,50,2012-05-11 00:53:00
3:53 PM,79.0,64.0,60,30.05,10.0,NE,12.7,-,N/A,,Scattered Clouds,40,2012-05-11 01:53:00
4:53 PM,77.0,64.0,64,30.05,10.0,NE,16.1,-,N/A,,Partly Cloudy,40,2012-05-11 02:53:00
5:53 PM,75.9,64.0,67,30.05,10.0,NNE,12.7,-,N/A,,Scattered Clouds,30,2012-05-11 03:53:00
6:53 PM,73.0,63.0,71,30.06,10.0,NNE,12.7,-,N/A,,Scattered Clouds,30,2012-05-11 04:53:00
7:53 PM,73.0,63.0,71,30.07,10.0,NNE,13.8,-,N/A,,Partly Cloudy,30,2012-05-11 05:53:00
8:53 PM,73.0,63.0,71,30.07,10.0,NE,13.8,-,N/A,,Scattered Clouds,40,2012-05-11 06:53:00
9:53 PM,73.0,63.0,71,30.08,10.0,NE,16.1,-,N/A,,Mostly Cloudy,50,2012-05-11 07:53:00
10:53 PM,73.0,64.0,73,30.08,10.0,NE,12.7,-,N/A,,Partly Cloudy,50,2012-05-11 08:53:00
11:53 PM,73.0,63.0,71,30.07,10.0,NE,12.7,-,N/A,,Scattered Clouds,40,2012-05-11 09:53:00